User: anonymous   Login
Location: Iesi
(43.5167°N, 13.2333°E)
Time: 16:25:36
(UTC+00:00)
Language:

IRIDIUM 114 - Orbit

View from above orbital plane
View from above orbital plane
View from above satellite
View from above satellite

Ground track
Ground track

The orbit data is extracted from the following two-line orbital elements,

1 41923U 17003G   20292.90502449 +.00000077 +00000-0 +20369-4 0  9996
2 41923 086.4001 232.2423 0002360 091.0959 269.0507 14.34216871196969
Epoch (UTC): 18 October 2020 21:43:14
Eccentricity: 0.0002360
inclination: 86.4001°
perigee height: 776 km
apogee height: 779 km
right ascension of ascending node: 232.2423°
argument of perigee: 91.0959°
revolutions per day: 14.34216871
mean anomaly at epoch: 269.0507°
orbit number at epoch: 19696

The dashed part of the orbit path shows where the satellite is in the earth's shadow,  

DLR